Location: Moscow
(55.7500°N, 37.5830°E)
Time: 00:53:16
(UTC+03:00)

Vanguard 3 - Pass Details

Date: 08 December 2021
Orbit: 508 x 3260 km, 33.3° (Epoch: 17 January)

Event Time Altitude Azimuth Distance (km) Brightness Sun altitude
Rises 00:18:23 0° 172° (S) 6,508 - -56.9°
Reaches altitude 10° 00:28:13 10° 144° (SE) 6,006 - -56.9°
Maximum altitude 00:32:31 11° 131° (SE) 6,026 - -56.9°
Drops below altitude 10° 00:36:56 10° 118° (ESE) 6,194 - -56.8°
Exits shadow 00:37:58 - 115° (ESE) 6,253 11.5 -56.8°
Sets 00:47:36 0° 91° (E) 7,099 12.0 -56.6°
